SCP
0 0 0 0 0 0 0 0 0 0 0 0 0 0 0 0 0 0 0 0 0 0 0 0 0 0 0 0 0 0 0 0
0 0 0 0 -0 0 0 0 0 0 0 0 0 0 0 0 0 0 0 0 0 0 0 0 0 0 0 0 0 0 0 0
-0 0 0 0 -0 -0 0 0 -0 0 0 0 0 0 0 0 0 0 0 0 0 0 0 0 0 0 0 0 0 0 0 0
-0 -0 -0 -0 -0 -0 -0 0 0 0 0 0 0 0 0 0 0 0 0 -0 0 0 0 0 0 0 0 0 0 0 0 0
-0 -0 -0 -0 -0 -0 -0 -0 -0 0 0 0 0 0 0 0 0 -0 -0 -0 0 0 0 0 0 0 0 0 0 0 0 0
-0 -0 -0 -0 -0 -0 -0 -0 -0 -0 -0 0 0 0 0 0 0 0 0 0 0 0 0 0 0 0 0 0 0 0 0 0
-0 -0 -0 -0 -0 -0 -0 -0 -0 -0 -0 -0 -0 -0 0 0 0 0 0 0 0 0 0 0 0 0 0 0 0 0 0 0
-0 -0 -0 -0 -0 -0 -0 -0 -0 -0 -0 -0 -0 -0 -0 0 0 -0 -0 0 0 0 0 0 0 0 0 0 0 0 0 0
-0 -0 -0 -0 -0 -0 -0 -0 -0 -0 -0 -0 -0 -0 -0 -0 -0 -0 0 0 0 0 0 0 0 0 0 0 0 0 0 0
-0 -0 -0 -0 -0 -0 -0 -0 -0 -0 -0 -0 -0 -0 -0 -0 -0 -0 -0 0 0 -0 -0 0 0 0 -0 -0 -0 -0 0 0
0 -0 -0 -0 -0 -0 -0 -0 -0 -0 -0 -0 -0 -0 -0 -0 -0 -0 -0 -0 -0 -0 0 0 0 -0 -0 -0 0 0 0 0
0 0 0 0 -0 -0 -0 -0 -0 -0 -0 -0 -0 -0 -0 -0 -0 0 0 -0 -0 -0 0 -0 -0 -0 -0 0 0 0 0 0
0 0 0 0 0 -0 -0 -0 -0 -0 -0 -0 -0 -0 -0 -0 -0 -0 0 0 -0 0 0 0 0 0 0 0 0 0 0 0
0 0 0 0 0 0 -0 -0 -0 -0 -0 0 0 -0 -0 -0 -0 0 0 -0 0 0 0 0 0 0 0 0 0 0 0 0
0 0 0 0 0 0 0 0 0 0 0 0 0 0 0 0 0 0 0 0 0 0 0 0 0 0 0 0 0 0 0 0
0 0 0 0 0 0 0 0 0 0 0 0 0 0 0 0 0 0 0 0 0 0 0 0 0 0 0 0 0 0 0 0
0 0 0 0 0 0 0 0 0 0 0 0 0 0 0 0 0 0 0 0 0 0 0 0 0 0 0 0 0 0 0 0
0 0 0 0 0 0 0 0 0 0 0 0 0 0 0 0 0 0 0 0 0 0 0 0 0 0 0 0 0 0 0 0
0 0 0 0 0 0 0 0 0 0 0 0 0 0 0 0 0 0 0 0 0 0 0 0 0 0 0 0 0 0 0 0
Wind_Speed_500mb
21 16 24 26 31 37 60 51 37 46 50 60 62 68 81 83 76 61 80 75 73 73 68 63 61 56 41 45 42 36 28 25
21 19 21 30 32 43 40 40 44 57 63 67 70 72 71 93 79 76 81 83 82 75 67 62 62 50 45 47 42 39 36 33
30 25 24 35 36 44 43 41 38 59 63 69 63 80 70 82 80 75 77 75 71 71 70 65 62 56 52 44 43 41 35 35
37 33 30 37 46 46 50 44 47 58 55 67 66 77 72 72 86 83 85 72 72 72 69 66 62 59 53 46 46 39 34 34
39 38 38 40 48 48 50 57 55 51 56 75 69 91 98 68 80 91 101 78 68 78 71 67 64 59 49 44 42 38 35 29
46 44 40 40 43 49 50 57 59 59 55 75 78 87 94 63 68 83 92 82 69 82 74 68 64 54 52 45 40 37 40 39
47 44 41 39 43 46 48 48 54 64 63 70 75 73 82 66 75 80 83 91 82 81 72 75 64 60 53 53 51 51 48 47
52 53 52 48 47 46 49 51 53 61 66 76 79 83 89 87 88 91 87 92 85 102 86 84 78 70 75 68 64 59 56 55
56 57 54 52 54 52 51 52 54 58 69 76 73 81 89 86 91 83 84 92 97 93 91 85 89 80 77 83 71 59 66 61
51 53 55 53 55 57 57 54 55 57 63 77 78 78 82 77 80 89 92 93 93 93 95 95 92 90 77 84 71 62 64 62
44 51 53 52 52 54 54 55 57 58 60 66 72 78 75 79 75 80 94 93 94 89 94 101 91 91 88 75 76 70 66 65
38 46 49 51 50 55 58 59 58 59 62 63 69 78 80 87 84 86 89 87 92 88 92 93 84 81 79 75 74 71 69 78
29 39 47 53 56 57 61 62 63 64 63 65 68 69 72 83 90 93 95 113 98 98 105 94 89 89 89 88 92 85 94 86
20 32 43 52 57 60 63 69 72 67 65 68 69 74 77 85 89 88 88 87 91 92 88 95 107 110 107 100 101 100 94 93
15 24 35 43 50 57 61 65 69 70 70 70 71 77 81 82 81 83 86 90 90 98 97 92 90 86 83 90 94 98 99 95
27 26 26 33 44 50 55 58 62 67 69 73 83 82 79 76 77 78 81 85 88 86 88 93 91 87 89 90 87 90 99 96
33 38 38 36 40 47 51 56 61 63 69 72 72 74 77 82 82 81 79 82 83 81 83 84 87 90 96 98 94 84 89 90
37 32 32 34 40 45 50 53 54 62 66 68 69 66 69 71 70 73 77 81 77 82 84 79 80 83 94 96 88 83 79 74
37 23 21 25 35 41 50 45 53 62 69 67 65 66 66 60 58 60 60 61 65 68 67 66 68 69 79 73 68 66 72 72
Wind_Direction_500mb
214 221 201 214 214 200 208 210 214 197 184 178 178 182 184 182 177 180 183 179 191 193 192 190 184 186 185 184 185 187 184 183
204 212 207 201 202 198 196 202 216 193 188 180 181 183 184 185 184 187 190 189 191 192 194 192 193 192 194 193 195 199 196 196
200 201 194 191 189 196 201 213 202 199 196 191 185 189 187 189 188 192 194 198 195 199 198 196 200 202 207 204 208 212 209 213
198 196 194 190 193 194 201 205 203 198 202 198 195 191 188 190 196 196 195 202 200 204 203 202 202 209 211 212 219 226 215 226
196 195 194 194 197 198 195 201 203 204 210 197 199 193 194 192 198 198 206 211 208 208 209 209 211 214 217 226 229 233 233 234
195 196 198 195 191 195 195 208 206 204 211 203 206 199 202 201 204 201 202 215 213 209 213 215 219 218 218 227 238 240 249 243
195 193 192 196 194 191 192 195 204 205 207 206 211 201 202 209 206 206 208 208 207 209 214 220 221 220 224 234 246 241 244 254
193 191 192 191 196 196 193 194 197 204 205 206 206 204 199 212 209 208 214 210 213 213 216 217 219 234 240 243 243 245 254 261
195 195 195 194 193 194 197 196 196 198 203 206 207 207 208 214 212 214 211 208 211 214 215 222 224 236 239 245 249 251 260 262
200 198 197 198 198 197 196 197 197 198 199 206 209 209 211 212 213 215 211 212 216 218 221 225 230 235 246 245 246 251 259 259
198 203 203 202 203 203 202 200 200 201 201 201 204 208 213 212 214 215 215 216 218 221 223 226 233 240 243 241 245 251 254 255
194 201 206 207 206 206 208 207 204 204 206 207 207 208 209 211 216 218 218 219 221 225 228 232 236 239 237 239 245 250 249 258
200 198 200 205 208 208 210 210 210 209 209 209 212 214 213 215 219 220 220 222 226 227 229 232 235 236 239 241 245 248 255 259
200 202 201 206 209 211 212 216 217 215 212 214 215 217 217 221 222 222 223 225 226 229 231 235 239 241 242 243 245 248 255 259
212 206 211 212 211 214 215 219 219 217 217 216 218 221 224 225 226 227 228 230 230 234 235 236 237 238 239 243 248 251 253 258
261 241 223 222 218 217 218 221 220 219 218 222 228 231 229 228 230 232 233 235 236 236 238 242 245 245 244 246 248 253 256 262
276 263 256 238 227 226 220 221 220 218 220 229 228 228 230 235 235 235 236 239 239 239 240 241 244 246 251 253 253 258 270 268
313 298 275 259 249 248 234 232 222 223 224 225 225 224 228 231 234 235 238 240 242 243 244 243 245 249 254 258 261 263 264 265
320 313 318 302 276 252 248 227 229 233 233 228 227 227 227 225 226 230 231 232 236 241 242 241 243 248 259 264 262 258 258 259
Wind_Speed_850mb
21 16 24 26 31 37 60 51 37 46 50 60 62 68 81 83 76 61 80 75 73 73 68 63 61 56 41 45 42 36 28 25
21 19 21 30 32 43 40 40 44 57 63 67 70 72 71 93 79 76 81 83 82 75 67 62 62 50 45 47 42 39 36 33
30 25 24 35 36 44 43 41 38 59 63 69 63 80 70 82 80 75 77 75 71 71 70 65 62 56 52 44 43 41 35 35
37 33 30 37 46 46 50 44 47 58 55 67 66 77 72 72 86 83 85 72 72 72 69 66 62 59 53 46 46 39 34 34
39 38 38 40 48 48 50 57 55 51 56 75 69 91 98 68 80 91 101 78 68 78 71 67 64 59 49 44 42 38 35 29
46 44 40 40 43 49 50 57 59 59 55 75 78 87 94 63 68 83 92 82 69 82 74 68 64 54 52 45 40 37 40 39
47 44 41 39 43 46 48 48 54 64 63 70 75 73 82 66 75 80 83 91 82 81 72 75 64 60 53 53 51 51 48 47
52 53 52 48 47 46 49 51 53 61 66 76 79 83 89 87 88 91 87 92 85 102 86 84 78 70 75 68 64 59 56 55
56 57 54 52 54 52 51 52 54 58 69 76 73 81 89 86 91 83 84 92 97 93 91 85 89 80 77 83 71 59 66 61
51 53 55 53 55 57 57 54 55 57 63 77 78 78 82 77 80 89 92 93 93 93 95 95 92 90 77 84 71 62 64 62
44 51 53 52 52 54 54 55 57 58 60 66 72 78 75 79 75 80 94 93 94 89 94 101 91 91 88 75 76 70 66 65
38 46 49 51 50 55 58 59 58 59 62 63 69 78 80 87 84 86 89 87 92 88 92 93 84 81 79 75 74 71 69 78
29 39 47 53 56 57 61 62 63 64 63 65 68 69 72 83 90 93 95 113 98 98 105 94 89 89 89 88 92 85 94 86
20 32 43 52 57 60 63 69 72 67 65 68 69 74 77 85 89 88 88 87 91 92 88 95 107 110 107 100 101 100 94 93
15 24 35 43 50 57 61 65 69 70 70 70 71 77 81 82 81 83 86 90 90 98 97 92 90 86 83 90 94 98 99 95
27 26 26 33 44 50 55 58 62 67 69 73 83 82 79 76 77 78 81 85 88 86 88 93 91 87 89 90 87 90 99 96
33 38 38 36 40 47 51 56 61 63 69 72 72 74 77 82 82 81 79 82 83 81 83 84 87 90 96 98 94 84 89 90
37 32 32 34 40 45 50 53 54 62 66 68 69 66 69 71 70 73 77 81 77 82 84 79 80 83 94 96 88 83 79 74
37 23 21 25 35 41 50 45 53 62 69 67 65 66 66 60 58 60 60 61 65 68 67 66 68 69 79 73 68 66 72 72
Wind_Direction_850mb
214 221 201 214 214 200 208 210 214 197 184 178 178 182 184 182 177 180 183 179 191 193 192 190 184 186 185 184 185 187 184 183
204 212 207 201 202 198 196 202 216 193 188 180 181 183 184 185 184 187 190 189 191 192 194 192 193 192 194 193 195 199 196 196
200 201 194 191 189 196 201 213 202 199 196 191 185 189 187 189 188 192 194 198 195 199 198 196 200 202 207 204 208 212 209 213
198 196 194 190 193 194 201 205 203 198 202 198 195 191 188 190 196 196 195 202 200 204 203 202 202 209 211 212 219 226 215 226
196 195 194 194 197 198 195 201 203 204 210 197 199 193 194 192 198 198 206 211 208 208 209 209 211 214 217 226 229 233 233 234
195 196 198 195 191 195 195 208 206 204 211 203 206 199 202 201 204 201 202 215 213 209 213 215 219 218 218 227 238 240 249 243
195 193 192 196 194 191 192 195 204 205 207 206 211 201 202 209 206 206 208 208 207 209 214 220 221 220 224 234 246 241 244 254
193 191 192 191 196 196 193 194 197 204 205 206 206 204 199 212 209 208 214 210 213 213 216 217 219 234 240 243 243 245 254 261
195 195 195 194 193 194 197 196 196 198 203 206 207 207 208 214 212 214 211 208 211 214 215 222 224 236 239 245 249 251 260 262
200 198 197 198 198 197 196 197 197 198 199 206 209 209 211 212 213 215 211 212 216 218 221 225 230 235 246 245 246 251 259 259
198 203 203 202 203 203 202 200 200 201 201 201 204 208 213 212 214 215 215 216 218 221 223 226 233 240 243 241 245 251 254 255
194 201 206 207 206 206 208 207 204 204 206 207 207 208 209 211 216 218 218 219 221 225 228 232 236 239 237 239 245 250 249 258
200 198 200 205 208 208 210 210 210 209 209 209 212 214 213 215 219 220 220 222 226 227 229 232 235 236 239 241 245 248 255 259
200 202 201 206 209 211 212 216 217 215 212 214 215 217 217 221 222 222 223 225 226 229 231 235 239 241 242 243 245 248 255 259
212 206 211 212 211 214 215 219 219 217 217 216 218 221 224 225 226 227 228 230 230 234 235 236 237 238 239 243 248 251 253 258
261 241 223 222 218 217 218 221 220 219 218 222 228 231 229 228 230 232 233 235 236 236 238 242 245 245 244 246 248 253 256 262
276 263 256 238 227 226 220 221 220 218 220 229 228 228 230 235 235 235 236 239 239 239 240 241 244 246 251 253 253 258 270 268
313 298 275 259 249 248 234 232 222 223 224 225 225 224 228 231 234 235 238 240 242 243 244 243 245 249 254 258 261 263 264 265
320 313 318 302 276 252 248 227 229 233 233 228 227 227 227 225 226 230 231 232 236 241 242 241 243 248 259 264 262 258 258 259